Simultaneous Nadir Overpasses (SNOs) Predictions

Prediction of SNOs between GOES-17 and TERRA Satellite Orbit:

Table of predicted SNOs for the next 14.0 days since TLE Epoch: 8/12/2023
Index Date Time (GOES-17) GOES-17 Lat,Lon TERRA Lat,Lon Distance(km) Time Diff (sec)
1 08/12/2023 04:50:33 0.00,-104.70 0.51,-102.24 279.15 80
2 08/12/2023 17:10:45 -0.00,-104.72 0.50,-107.15 276.16 80
3 08/14/2023 16:57:03 -0.00,-104.72 -0.32,-103.20 172.82 80
4 08/15/2023 05:17:22 0.00,-104.70 -0.72,-108.13 390.58 80
5 08/17/2023 04:58:20 -0.00,-104.70 0.11,-104.18 58.84 80
6 08/17/2023 17:18:30 0.00,-104.72 0.94,-109.08 496.68 80
7 08/19/2023 17:02:08 0.01,-104.72 0.09,-105.13 46.62 80
8 08/21/2023 16:48:26 0.01,-104.73 -0.73,-101.18 403.48 80
9 08/22/2023 05:08:44 -0.01,-104.71 -0.31,-106.11 159.47 80
10 08/24/2023 04:49:41 -0.01,-104.71 0.53,-102.16 290.09 80
11 08/24/2023 17:09:52 0.01,-104.72 0.51,-107.06 265.87 80
